K7MT-WX Weather Reports


time (UTC)temp
F
wind
direction
speed
knots
gust
knots
rain 1hr
in
rain 24hr
in
rain mn
in
humidity
%
barometer
mb
20260508012813 64 350 1.7 4.3 0.00 0.08 0.08 48 1012.1
20260508011313 63 328 1.7 5.2 0.00 0.08 0.08 49 1012.2
20260508005812 65 308 0.9 2.6 0.00 0.08 0.08 42 1012.3
20260508004312 64 72 1.7 2.6 0.00 0.08 0.08 44 1012.6
20260508002743 62 64 0.0 1.7 0.00 0.08 0.08 49 1012.7
20260508001243 62 240 0.9 1.7 0.00 0.08 0.08 49 1012.9
20260507235743 63 248 0.9 1.7 0.00 0.08 0.08 45 1012.6
20260507234242 63 261 0.0 0.9 0.00 0.08 0.08 47 1012.4
20260507232743 62 270 1.7 2.6 0.00 0.08 0.08 51 1012.4
20260507231243 62 238 2.6 7.0 0.00 0.08 0.08 54 1012.6
20260507225742 61 231 6.1 10.4 0.00 0.08 0.08 53 1012.3
20260507224242 60 233 4.3 7.8 0.00 0.08 0.08 57 1012.5
20260507222742 62 206 7.0 10.4 0.00 0.08 0.08 52 1012.3
20260507221242 66 111 1.7 2.6 0.00 0.08 0.08 43 1012.0
20260507215742 66 177 0.9 2.6 0.00 0.08 0.08 41 1012.0
20260507214242 66 217 1.7 2.6 0.00 0.08 0.08 43 1012.1
20260507212742 67 202 4.3 5.2 0.00 0.08 0.08 43 1012.3
20260507211242 67 254 4.3 5.2 0.00 0.08 0.08 43 1012.4
20260507205742 66 205 7.0 7.8 0.00 0.08 0.08 44 1012.7
20260507204242 65 204 6.1 10.4 0.00 0.08 0.08 46 1012.7
20260507202742 65 151 2.6 4.3 0.00 0.08 0.08 46 1012.8
20260507201242 65 84 1.7 4.3 0.00 0.08 0.08 41 1012.6
20260507195742 67 112 1.7 1.7 0.00 0.08 0.08 37 1012.6
20260507194242 67 162 5.2 7.0 0.00 0.08 0.08 42 1012.7
20260507192742 65 146 2.6 2.6 0.00 0.08 0.08 40 1012.8
20260507191242 63 165 0.9 0.9 0.00 0.08 0.08 47 1012.9
20260507185742 65 134 2.6 7.0 0.00 0.08 0.08 48 1013.2
20260507184242 63 202 1.7 6.1 0.00 0.08 0.08 53 1013.3
20260507182742 63 206 4.3 7.0 0.00 0.08 0.08 52 1013.4
20260507181242 61 206 5.2 7.0 0.00 0.08 0.08 58 1013.5
20260507175742 61 203 4.3 6.1 0.00 0.08 0.08 57 1013.6
20260507174242 62 241 1.7 4.3 0.00 0.08 0.08 58 1013.2
20260507172742 62 98 1.7 2.6 0.00 0.08 0.08 55 1013.1
20260507171242 63 155 1.7 4.3 0.00 0.08 0.08 55 1013.1
20260507165742 62 134 1.7 2.6 0.00 0.08 0.08 56 1013.0
20260507164242 61 96 2.6 4.3 0.00 0.08 0.08 59 1013.1
20260507162742 60 152 0.9 2.6 0.00 0.08 0.08 61 1013.2
20260507161242 58 139 0.9 1.7 0.00 0.08 0.08 66 1013.3
20260507155742 57 138 0.9 1.7 0.00 0.08 0.08 67 1013.5
20260507154242 56 236 0.0 0.9 0.00 0.08 0.08 72 1013.5
20260507152742 55 198 0.9 0.9 0.00 0.08 0.08 72 1013.4
20260507151242 55 229 0.9 1.7 0.00 0.08 0.08 75 1013.4
20260507145742 53 272 0.9 2.6 0.00 0.08 0.08 80 1013.2
20260507144242 52 131 0.9 1.7 0.00 0.08 0.08 80 1013.6
20260507142742 52 220 0.0 0.0 0.00 0.08 0.08 81 1013.2
20260507141242 51 54 0.0 0.0 0.00 0.08 0.08 82 1012.8
20260507135742 50 77 0.0 0.9 0.00 0.08 0.08 83 1012.8
20260507134242 49 77 0.0 0.9 0.00 0.08 0.08 87 1012.7
20260507132742 48 31 0.0 0.0 0.00 0.08 0.08 87 1012.7
20260507131242 48 302 0.0 0.0 0.00 0.08 0.08 86 1012.4
20260507125742 48 248 0.0 0.0 0.00 0.08 0.08 86 1012.5
20260507124242 48 248 0.0 0.0 0.00 0.08 0.08 85 1012.2
20260507122742 48 245 0.9 1.7 0.00 0.08 0.08 84 1012.3
20260507121242 48 236 0.0 0.9 0.00 0.08 0.08 86 1012.2
20260507115742 48 201 0.0 0.9 0.00 0.08 0.08 83 1011.9
20260507114242 49 279 0.0 0.0 0.00 0.08 0.08 82 1011.8
20260507112742 50 279 0.0 0.0 0.00 0.08 0.08 82 1012.0
20260507111242 50 335 0.0 0.0 0.00 0.08 0.08 81 1012.1
20260507105742 51 39 0.0 2.6 0.01 0.08 0.08 79 1012.1
20260507104242 51 64 0.9 1.7 0.07 0.08 0.08 79 1012.0
20260507102742 51 140 0.9 2.6 0.07 0.08 0.08 75 1012.1
20260507101242 51 156 4.3 6.1 0.07 0.08 0.08 76 1012.5
20260507095742 50 119 8.7 15.6 0.06 0.07 0.07 79 1013.3
20260507094242 54 116 13.9 17.4 0.00 0.01 0.01 69 1012.8
20260507092742 51 108 2.6 7.0 0.00 0.01 0.01 80 1012.0
20260507091242 50 145 0.0 1.7 0.00 0.01 0.01 81 1011.0
20260507085742 52 193 0.0 0.0 0.00 0.01 0.01 76 1010.6
20260507084212 51 186 0.0 0.0 0.00 0.01 0.01 77 1010.6
20260507082642 52 235 0.0 0.0 0.00 0.01 0.01 74 1010.5
20260507081112 53 229 0.0 0.0 0.00 0.01 0.01 72 1010.5
20260507075542 53 211 0.0 0.0 0.00 0.01 0.01 70 1010.4
20260507074012 55 268 0.0 0.9 0.00 0.01 0.01 66 1010.2
20260507072442 55 45 0.0 0.9 0.00 0.01 0.01 64 1010.2
20260507070912 55 252 0.0 0.9 0.00 0.01 0.01 63 1010.3
20260507065342 56 63 0.0 0.9 0.01 0.01 0.01 62 1010.4
20260507063842 56 53 2.6 5.2 0.01 0.01 0.01 62 1010.2
20260507062342 57 234 4.3 4.3 0.01 0.01 0.01 59 1010.2
20260507060842 58 200 6.1 6.1 0.01 0.01 0.01 57 1010.9
20260507055342 58 120 6.1 19.1 0.00 0.00 0.00 61 1011.0
20260507053842 59 124 5.2 8.7 0.00 0.00 0.00 58 1010.7
20260507052342 60 136 2.6 6.1 0.00 0.00 0.00 54 1010.4
20260507050842 60 105 13.9 18.2 0.00 0.00 0.00 49 1011.0
20260507045342 61 148 7.0 13.9 0.00 0.00 0.00 47 1010.8
20260507043842 61 111 11.3 17.4 0.00 0.00 0.00 48 1010.8
20260507042342 62 102 5.2 7.0 0.00 0.00 0.00 44 1010.4
20260507040842 62 99 1.7 5.2 0.00 0.00 0.00 44 1010.1
20260507035342 63 82 1.7 2.6 0.00 0.00 0.00 43 1010.1
20260507033842 63 63 2.6 4.3 0.00 0.00 0.00 43 1010.0
20260507032342 64 70 2.6 6.1 0.00 0.00 0.00 42 1009.7
20260507030842 64 71 5.2 7.8 0.00 0.00 0.00 42 1009.5
20260507025342 65 73 5.2 7.8 0.00 0.00 0.00 40 1009.4
20260507023842 64 110 1.7 5.2 0.00 0.00 0.00 37 1009.4
20260507022342 64 113 2.6 5.2 0.00 0.00 0.00 40 1009.2
20260507020842 66 123 5.2 7.8 0.00 0.00 0.00 37 1009.2
20260507015342 66 126 7.0 12.2 0.00 0.00 0.00 35 1009.2
20260507013842 67 117 7.8 13.9 0.00 0.00 0.00 34 1009.2